Location: McFarlands Corners
(41.4117°N, 81.3382°W)
Time: 17:29:14
(UTC+00:00)

SR - Pass Details

Date: 22 February 2026
Orbit: 572 x 849 km, 66.7° (Epoch: 12 March)

Event Time Altitude Azimuth Distance (km) Brightness Sun altitude
Rises 07:29:17 0° 164° (SSE) 2,762 - -50.4°
Reaches altitude 10° 07:32:17 10° 141° (SE) 1,879 - -50.0°
Maximum altitude 07:34:39 15° 106° (ESE) 1,606 - -49.7°
Drops below altitude 10° 07:37:04 10° 71° (ENE) 1,926 - -49.4°
Sets 07:40:12 0° 48° (NE) 2,875 - -48.9°
Exits shadow 07:40:25 -1° 47° (NE) 2,951 ? -48.9°
